User: anonymous   Login
Location: Mentone
(34.5413°N, 85.5351°W)
Time: 05:31:48
(UTC-05:00)
Language:

SL-8 R/B - Orbit

View from above orbital plane
View from above orbital plane
View from above satellite
View from above satellite

Ground track
Ground track

The orbit data is extracted from the following two-line orbital elements,

1 33066U 08031G   16181.87149884 -.00000113  00000-0  13896-4 0  9993
2 33066  48.4447 318.2295 0007267  67.1827  34.5763 14.69443044430941
Epoch (UTC): 29 June 2016 20:54:57
Eccentricity: 0.0007267
inclination: 48.4447°
perigee height: 658 km
apogee height: 668 km
right ascension of ascending node: 318.2295°
argument of perigee: 67.1827°
revolutions per day: 14.69443044
mean anomaly at epoch: 34.5763°
orbit number at epoch: 43094

The dashed part of the orbit path shows where the satellite is in the earth's shadow,  

DLR